Weather History for KCKN - November, 2012

Change the Weather History Date:

Thursday, November 22, 2012

  Actual Average Record
Temperature  
Mean Temperature 22 °F -  
Max Temperature 32 °F 28 °F 60 °F (2006)
Min Temperature 12 °F 14 °F 0 °F (2010)
Degree Days  
Heating Degree Days 43    
Moisture  
Dew Point 22 °F    
Average Humidity 92    
Maximum Humidity 100    
Minimum Humidity 79    
Precipitation  
Precipitation 0.00 in - - ()
Sea Level Pressure  
Sea Level Pressure 29.87 in    
Wind  
Wind Speed 19 mph (NNW)    
Max Wind Speed 37 mph    
Max Gust Speed 45 mph    
Visibility 4 miles    
Events Snow    
Averages and records for this station are not official NWS values.
T = Trace of Precipitation, MM = Missing Value Source: NWS Daily Summary

Daily Weather History Graph

Daily Weather History Graph

Search for Another Location

Airport or City:

Trip Planner

Search our weather history database for the weather conditions in past years. The results will help you decide how hot, cold, wet, or windy it might be!

Date:

Astronomy

Nov. 22, 2012 Rise Set
Actual Time 7:43 AM CST 4:41 PM CST
Civil Twilight 7:08 AM CST 5:16 PM CST
Nautical Twilight 6:30 AM CST 5:54 PM CST
Astronomical Twilight 5:53 AM CST 6:31 PM CST
Moon 1:48 PM CST (11/22) 1:42 AM CST (11/22)
Length of Visible Light 10h 07m
Length of Day
8h 58m
Waxing Gibbous, 71% of the Moon is Illuminated
Nov 22
Waxing Gibbous
Nov 28
Full
Dec 6
Last Quarter
Dec 13
New
Dec 19
First Quarter

Hourly Weather History & Observations

Time (CST) Temp. Windchill Dew Point Humidity Pressure Visibility Wind Dir Wind Speed Gust Speed Precip Events Conditions
12:15 AM 30.2 °F 24.3 °F 30.2 °F 100% 29.54 in 4.0 mi NW 5.8 mph - N/A   Clear
12:35 AM 30.2 °F 23.4 °F 30.2 °F 100% 29.54 in 3.0 mi NW 6.9 mph - N/A   Clear
12:54 AM 30.2 °F 24.3 °F 30.2 °F 100% 29.54 in 3.0 mi NNW 5.8 mph - N/A   Clear
1:15 AM 30.2 °F 25.4 °F 30.2 °F 100% 29.52 in 3.0 mi North 4.6 mph - N/A   Clear
1:34 AM 30.2 °F 23.4 °F 30.2 °F 100% 29.54 in 3.0 mi NNW 6.9 mph - N/A   Clear
1:54 AM 30.2 °F 22.6 °F 30.2 °F 100% 29.56 in 3.0 mi NNW 8.1 mph - N/A   Clear
2:15 AM 32.0 °F 22.5 °F 30.2 °F 93% 29.56 in 4.0 mi NNW 12.7 mph - N/A   Mostly Cloudy
2:35 AM 32.0 °F 21.6 °F 30.2 °F 93% 29.59 in 1.8 mi NNW 15.0 mph - N/A   Overcast
2:54 AM 30.2 °F 18.9 °F 30.2 °F 100% 29.61 in 0.8 mi NNW 16.1 mph 20.7 mph N/A   Overcast
3:15 AM 32.0 °F 20.8 °F 30.2 °F 93% 29.62 in 1.8 mi NNW 17.3 mph 23.0 mph N/A   Overcast
3:34 AM 30.2 °F 18.5 °F 30.2 °F 100% 29.63 in 2.5 mi NNW 17.3 mph 25.3 mph N/A   Overcast
3:54 AM 30.2 °F 18.5 °F 30.2 °F 100% 29.63 in 2.5 mi NNW 17.3 mph - N/A   Overcast
4:15 AM 30.2 °F 16.8 °F 30.2 °F 100% 29.63 in 3.0 mi NNW 23.0 mph 27.6 mph N/A   Overcast
4:34 AM 30.2 °F 17.8 °F 30.2 °F 100% 29.62 in 4.0 mi North 19.6 mph 27.6 mph N/A   Overcast
4:55 AM 30.2 °F 18.9 °F 30.2 °F 100% 29.64 in 3.0 mi NNW 16.1 mph - N/A   Overcast
5:15 AM 30.2 °F 18.5 °F 30.2 °F 100% 29.65 in 5.0 mi NNW 17.3 mph 21.9 mph N/A   Overcast
5:34 AM 30.2 °F 17.4 °F 30.2 °F 100% 29.67 in 5.0 mi NNW 20.7 mph 32.2 mph N/A   Overcast
5:55 AM 30.2 °F 16.5 °F 28.4 °F 93% 29.69 in 2.5 mi NNW 24.2 mph 29.9 mph N/A   Overcast
6:15 AM 28.4 °F 13.8 °F 28.4 °F 100% 29.73 in 5.0 mi NW 25.3 mph 32.2 mph N/A   Overcast
6:34 AM 28.4 °F 14.7 °F 28.4 °F 100% 29.71 in 4.0 mi NNW 21.9 mph 28.8 mph N/A   Overcast
6:55 AM 28.4 °F 15.4 °F 26.6 °F 93% 29.72 in 10.0 mi NNW 19.6 mph 31.1 mph N/A   Overcast
7:15 AM 28.4 °F 15.1 °F 26.6 °F 93% 29.73 in 7.0 mi NNW 20.7 mph - N/A   Overcast
7:34 AM 28.4 °F 14.7 °F 26.6 °F 93% 29.74 in 10.0 mi NNW 21.9 mph 27.6 mph N/A   Overcast
7:55 AM 26.6 °F 11.7 °F 26.6 °F 100% 29.75 in 7.0 mi NNW 24.2 mph 32.2 mph N/A   Overcast
8:15 AM 26.6 °F 12.0 °F 26.6 °F 100% 29.76 in 7.0 mi NNW 23.0 mph 28.8 mph N/A   Overcast
8:34 AM 26.6 °F 12.4 °F 24.8 °F 93% 29.77 in 5.0 mi NNW 21.9 mph 26.5 mph N/A   Overcast
8:55 AM 24.8 °F 9.3 °F 24.8 °F 100% 29.78 in 10.0 mi NNW 24.2 mph 28.8 mph N/A   Overcast
9:15 AM 24.8 °F 8.7 °F 24.8 °F 100% 29.78 in 10.0 mi NNW 26.5 mph 31.1 mph N/A   Overcast
9:34 AM 24.8 °F 9.3 °F 23.0 °F 93% 29.79 in 10.0 mi NNW 24.2 mph 29.9 mph N/A   Overcast
9:55 AM 24.8 °F 8.7 °F 23.0 °F 93% 29.81 in 10.0 mi NNW 26.5 mph 32.2 mph N/A   Overcast
10:15 AM 24.8 °F 8.4 °F 21.2 °F 86% 29.82 in 10.0 mi NNW 27.6 mph 31.1 mph N/A   Overcast
10:34 AM 24.8 °F 9.0 °F 21.2 °F 86% 29.85 in 10.0 mi NNW 25.3 mph 31.1 mph N/A   Overcast
10:55 AM 24.8 °F 9.6 °F 21.2 °F 86% 29.85 in 7.0 mi NNW 23.0 mph 28.8 mph N/A   Overcast
11:15 AM 24.8 °F 10.0 °F 21.2 °F 86% 29.86 in 7.0 mi NNW 21.9 mph 29.9 mph N/A   Overcast
11:34 AM 24.8 °F 10.0 °F 21.2 °F 86% 29.87 in 10.0 mi NNW 21.9 mph 32.2 mph N/A   Mostly Cloudy
11:55 AM 24.8 °F 8.7 °F 19.4 °F 80% 29.88 in 10.0 mi NW 26.5 mph 34.5 mph N/A   Overcast
12:15 PM 24.8 °F 9.0 °F 19.4 °F 80% 29.88 in 10.0 mi NNW 25.3 mph 31.1 mph N/A   Overcast
12:34 PM 23.0 °F 6.6 °F 19.4 °F 86% 29.89 in 10.0 mi NNW 25.3 mph 31.1 mph N/A   Overcast
12:55 PM 23.0 °F 8.0 °F 19.4 °F 86% 29.91 in 10.0 mi NNW 20.7 mph 34.5 mph N/A   Overcast
1:14 PM 23.0 °F 7.6 °F 17.6 °F 80% 29.91 in 10.0 mi NNW 21.9 mph 29.9 mph N/A   Overcast
1:34 PM 23.0 °F 7.6 °F 17.6 °F 80% 29.92 in 10.0 mi NNW 21.9 mph 28.8 mph N/A   Overcast
1:55 PM 21.2 °F 5.6 °F 19.4 °F 93% 29.93 in 1.8 mi NNW 20.7 mph - N/A Snow Light Snow
2:14 PM 21.2 °F 3.9 °F 19.4 °F 93% 29.92 in 1.0 mi NNW 26.5 mph 31.1 mph N/A Snow Light Snow
2:34 PM 21.2 °F 3.5 °F 19.4 °F 93% 29.92 in 1.5 mi NNW 27.6 mph 33.4 mph N/A Snow Light Snow
2:55 PM 21.2 °F 3.9 °F 19.4 °F 93% 29.93 in 3.0 mi NNW 26.5 mph 33.4 mph N/A Snow Light Snow
3:14 PM 21.2 °F 4.9 °F 19.4 °F 93% 29.95 in 3.0 mi NNW 23.0 mph 29.9 mph N/A Snow Light Snow
3:34 PM 21.2 °F 4.2 °F 19.4 °F 93% 29.96 in 4.0 mi NNW 25.3 mph 32.2 mph N/A   Overcast
3:55 PM 21.2 °F 5.6 °F 19.4 °F 93% 29.98 in 4.0 mi NNW 20.7 mph 29.9 mph N/A   Overcast
4:14 PM 21.2 °F 5.2 °F 19.4 °F 93% 29.99 in 3.0 mi NNW 21.9 mph 28.8 mph N/A Snow Light Snow
4:35 PM 19.4 °F 1.8 °F 17.6 °F 93% 30.00 in 1.8 mi NNW 25.3 mph 34.5 mph N/A Snow Light Snow
4:55 PM 19.4 °F 0.8 °F 17.6 °F 93% 30.00 in 1.5 mi NNW 28.8 mph 34.5 mph N/A Snow Light Snow
5:14 PM 19.4 °F 1.4 °F 17.6 °F 93% 30.01 in 1.5 mi NNW 26.5 mph 34.5 mph N/A Snow Light Snow
5:34 PM 19.4 °F 1.1 °F 17.6 °F 93% 30.03 in 1.2 mi NNW 27.6 mph 36.8 mph N/A Snow Light Snow
5:55 PM 19.4 °F 1.4 °F 17.6 °F 93% 30.04 in 1.5 mi NNW 26.5 mph 35.7 mph N/A Snow Light Snow
6:14 PM 19.4 °F 1.1 °F 17.6 °F 93% 30.05 in 1.5 mi NNW 27.6 mph 36.8 mph N/A Snow Light Snow
6:35 PM 19.4 °F -0.3 °F 17.6 °F 93% 30.06 in 1.5 mi NNW 33.4 mph 38.0 mph N/A Snow Light Snow
6:55 PM 19.4 °F -0.0 °F 17.6 °F 93% 30.07 in 1.2 mi NNW 32.2 mph 41.4 mph N/A Snow Light Snow
7:14 PM 17.6 °F -2.5 °F 15.8 °F 93% 30.08 in 1.0 mi NNW 32.2 mph 40.3 mph N/A Snow Light Snow
7:35 PM 17.6 °F -2.8 °F 15.8 °F 93% 30.10 in 0.8 mi NNW 33.4 mph 40.3 mph N/A Snow Light Snow
7:55 PM 17.6 °F -2.8 °F 15.8 °F 93% 30.11 in 0.8 mi NNW 33.4 mph 40.3 mph N/A Snow Snow
8:14 PM 17.6 °F -2.5 °F 14.0 °F 86% 30.12 in 0.8 mi NNW 32.2 mph 39.1 mph N/A Snow Light Snow
8:35 PM 15.8 °F -5.5 °F 12.2 °F 86% 30.13 in 0.8 mi NNW 34.5 mph 42.6 mph N/A Snow Light Snow
8:55 PM 15.8 °F -5.2 °F 12.2 °F 86% 30.15 in 1.0 mi NNW 33.4 mph 44.9 mph N/A Snow Light Snow
9:14 PM 15.8 °F -6.1 °F 12.2 °F 86% 30.16 in 1.0 mi North 36.8 mph 43.7 mph N/A Snow Light Snow
9:35 PM 15.8 °F -5.5 °F 10.4 °F 79% 30.17 in 1.5 mi NNW 34.5 mph 40.3 mph N/A Snow Light Snow
9:55 PM 14.0 °F -7.1 °F 10.4 °F 86% 30.18 in 1.5 mi NNW 31.1 mph 38.0 mph N/A Snow Light Snow
10:14 PM 14.0 °F -7.1 °F 10.4 °F 86% 30.19 in 1.8 mi NNW 31.1 mph 40.3 mph N/A Snow Light Snow
10:35 PM 12.2 °F -8.9 °F 10.4 °F 92% 30.20 in 1.8 mi NNW 28.8 mph 39.1 mph N/A Snow Light Snow
10:55 PM 12.2 °F -8.6 °F 10.4 °F 92% 30.21 in 2.0 mi NNW 27.6 mph 38.0 mph N/A Snow Light Snow
11:14 PM 14.0 °F -6.2 °F 10.4 °F 86% 30.22 in 1.8 mi NNW 27.6 mph 36.8 mph N/A Snow Light Snow
11:35 PM 14.0 °F -6.5 °F 10.4 °F 86% 30.23 in 1.2 mi NNW 28.8 mph 38.0 mph N/A Snow Light Snow
11:55 PM 14.0 °F -6.8 °F 10.4 °F 86% 30.24 in 1.2 mi NNW 29.9 mph 36.8 mph N/A Snow Light Snow